Weather in Gauf

Russia / Omsk Oblast     54°47′07″N   73°23′33″E
temp.,
°C
wind,
m/s
gust,
m/s
humid.,
%
clouds,
%
prec.,
mm/h
press.,
hPa
HPBL,
m
26 january, tue
tue2600:00−26ese239898 0.1 103527
03:00−25se2397100 0.0 103539
06:00−22sse3497100 0.0 1034119
09:00−19sse4798100 0.4 1032215
12:00−15s4795100 1.3 1030269
15:00−12s4695100 0.8 1028218
18:00−8sse3596100 1.8 1027124
21:00−3w6119497 0.5 1027545
27 january, wed
wed2700:00−3wsw5119599 0.7 1026469
03:00−4wsw6129493 0.2 1026455
06:00−3wsw6119496 0.3 1026440
09:00−7w61392100 0.0 1026443
12:00−6w61292100 0.1 1026540
15:00−4w61191100 0.1 1027666
18:00−4wnw51092100 0.1 1028560
21:00−4wnw5992100 0.1 1029511
28 january, thu
thu2800:00−4w4992100 0.1 1030500
03:00−7wsw5994100 0.1 1030296
06:00−9wsw4109799 0.1 1030246
09:00−3wsw51094100 0.1 1030597
12:00−2wsw61092100 0.3 1029632
15:00−4wsw7119593 0.0 1027479
18:00−4wsw7129597 0.1 1026471
21:00−4wsw71488100 0.0 1025440
29 january, fri
fri2900:00−5wsw71688100 0.0 1023486
03:00−4wsw71786100 0.0 1023558
06:00−5w81585100 0.0 1023499
09:00−7w61289100 0.0 1024432
12:00−7w61191100 0.0 1025390
15:00−7w5992100 0.0 1026373
18:00−9wsw499499 0.0 1026222
21:00−10w379497 0.0 1027164
30 january, sat
sat3000:00−11w349498 0.0 102756
03:00−13w2394100 0.0 102826
06:00−14wnw1295100 0.0 102920
09:00−13e2296100 0.0 102921
12:00−11e4795100 0.1 1029303
15:00−11ese5795100 0.1 1029340
18:00−15ese61095100 0.1 1028255
21:00−15ese61196100 0.0 1026261